Location: Jetmore Oil Field
(38.1181°N, 99.9337°W)
Time: 17:01:04
(UTC+00:00)

HJ-1C - Pass Details

Date: 17 February 2020
Orbit: 435 x 445 km, 97.2° (Epoch: 07 April)

Event Time Altitude Azimuth Distance (km) Brightness Sun altitude
Exits shadow 01:38:42 - 160° (SSE) 2,164 6.7 -16.3°
Reaches altitude 10° 01:40:09 10° 158° (SSE) 1,543 5.9 -16.6°
Maximum altitude 01:43:25 63° 77° (ENE) 491 3.2 -17.2°
Drops below altitude 10° 01:46:42 10° 355° (N) 1,551 6.2 -17.9°
Sets 01:48:44 0° 352° (N) 2,423 7.2 -18.3°
